Regional Weather Roundup
Issued by NWS

Home | Current Version | Previous Version | Text Only | Print | Product List | Glossary On
Versions: 1 2 3 4 5 6 7 8 9 10 11 12 13 14 15 16 17 18 19 20 21 22 23 24 25 26 27 28 29 30 31 32 33 34 35 36 37 38 39 40 41 42 43 44 45 46 47 48 49 50
852
ASUS43 KMKX 241700
RWRWI

WISCONSIN REGIONAL WEATHER ROUNDUP
NATIONAL WEATHER SERVICE MILWAUKEE/SULLIVAN WI
1200 PM CDT SAT JUN 24 2017

NOTE: "FAIR" INDICATES FEW OR NO CLOUDS BELOW 12,000 FEET WITH NO
SIGNIFICANT WEATHER AND/OR OBSTRUCTIONS TO VISIBILITY.

WIZ001-002-006>008-014>016-023>028-241800-
NORTHWEST WISCONSIN

CITY           SKY/WX    TMP DP  RH WIND       PRES   REMARKS
SUPERIOR ARPT  NOT AVBL
ASHLAND        LGT RAIN  57  50  77 W10       29.93R
HAYWARD        CLOUDY    59  43  55 VRB5      29.95R
SIREN          CLOUDY    60  44  56 W5G18     29.97R
CUMBERLAND     PTSUNNY   59  43  55 W8G17     29.97S
RICE LAKE      MOSUNNY   60  45  57 W15       29.99R
CHETEK         CLOUDY    61  48  63 W8G20     29.98R
LADYSMITH      PTSUNNY   63  48  56 W13G20    29.96R
EAU CLAIRE     NOT AVBL
MENOMONIE      MOSUNNY   62  42  47 W14G22    30.00S
NEW RICHMOND   SUNNY     63  40  42 NW10G18   30.00R
OSCEOLA        MOSUNNY   63  42  44 W18       30.03R
$$

WIZ003>005-009-010-017-018-241800-
NORTH CENTRAL WISCONSIN

CITY           SKY/WX    TMP DP  RH WIND       PRES   REMARKS
MANITOWISH WTR CLOUDY    54  52  95 W8        29.91R
ARBOR VITAE    CLOUDY    57  51  80 W13       29.91R
WOODRUFF       CLOUDY    57  51  80 W13       29.91R
RHINELANDER    CLOUDY    57  50  77 W9        29.92R
EAGLE RIVER    CLOUDY    56  49  77 W9        29.90R
LAND O LAKES   RAIN      55  51  89 W6        29.92R
PHILLIPS       CLOUDY    58  48  68 W10G16    29.92S
TOMAHAWK       NOT AVBL
MEDFORD        PTSUNNY   60  44  55 W16       29.95R
MERRILL        CLOUDY    61  49  66 NW12G17   29.93S
$$

WIZ029-030-035-036-043>047-241800-
CENTRAL WISCONSIN

CITY           SKY/WX    TMP DP  RH WIND       PRES   REMARKS
WAUSAU         CLOUDY    60  45  57 W14       29.92R
MOSINEE        CLOUDY    61  48  63 W12G22    29.94S
MARSHFIELD     CLOUDY    62  43  49 W17G23    29.96R
STEVENS POINT  CLOUDY    62  44  51 W16G22    29.95R
WAUPACA        CLOUDY    65  47  51 W12G18    29.94R
WAUTOMA        PTSUNNY   64  43  46 W20G26    29.97R
WISC RAPIDS    PTSUNNY   66  43  43 NW16G22   29.98R
CAMP DOUGLAS   NOT AVBL
$$

WIZ011>013-019>022-031-037>040-048>050-241800-
NORTHEAST WISCONSIN

CITY           SKY/WX    TMP DP  RH WIND       PRES   REMARKS
ANTIGO         CLOUDY    57  50  78 W15       29.92S
SHAWANO        CLOUDY    64  52  65 W10G17    29.90R
OCONTO         PTSUNNY   63  56  79 W8        29.86S
STURGEON BAY   LGT RAIN  62  58  86 W6          N/A
GREEN BAY      PTSUNNY   69  56  62 W17G25    29.89R
MANITOWOC      PTSUNNY   66  52  59 W14G22    29.90R
APPLETON       PTSUNNY   64  48  55 W13G20    29.92R
CLINTONVILLE   CLOUDY    63  48  59 W14       29.91R
OSHKOSH        MOSUNNY   67  46  47 W14G20    29.93R
$$

WIZ032>034-041-042-053>061-241800-
SOUTHWEST WISCONSIN

CITY           SKY/WX    TMP DP  RH WIND       PRES   REMARKS
LA CROSSE      PTSUNNY   69  45  41 NW14      30.01R
SPARTA         PTSUNNY   63  46  52 W12G17    30.01R
VIROQUA        PTSUNNY   63  48  58 W13       30.02S
BOSCOBEL       PTSUNNY   66  46  48 W10G21    30.03R
PRAIRIE DU CHI MOSUNNY   66  40  38 W20G26    30.04R
PLATTEVILLE    MOSUNNY   67  48  50 W14G22    30.04R
$$

WIZ056-057-062-063-064-067-068-241800-
SOUTH CENTRAL WISCONSIN

CITY           SKY/WX    TMP DP  RH WIND       PRES   REMARKS
REEDSBURG      CLOUDY    64  49  57 W14       29.99R
BARABOO/DELLS  CLOUDY    67  46  46 NW10G16   29.98S
LONE ROCK      PTSUNNY   67  50  54 W16       30.00R
MINERAL POINT  PTSUNNY   66  46  48 W15G23    30.02R
MADISON        PTSUNNY   65  46  50 NW13G18   29.98R
MIDDLETON      CLOUDY    66  47  50 W14G21    30.00R
WATERTOWN      PTSUNNY   66  47  50 W13G23    29.97R
MONROE         MOSUNNY   66  45  45 W18       30.01R
JANESVILLE     PTSUNNY   70  45  40 W18       29.99R
$$

WIZ051-052-058>065-066-070>072-241800-
SOUTHEAST WISCONSIN

CITY           SKY/WX    TMP DP  RH WIND       PRES   REMARKS
MILWAUKEE      MOSUNNY   71  48  43 W17G24    29.95R
WAUKESHA       PTSUNNY   64  48  55 W14G21    29.98R
MILWAUKEE/TIMM MOSUNNY   68  45  42 NW12G21   29.96R
RACINE         MOSUNNY   71  48  43 W12G18    29.97R
KENOSHA        PTSUNNY   68  50  52 W12G23    29.97R
FOND DU LAC    PTSUNNY   67  43  41 W16G29    29.95R
SHEBOYGAN      MOSUNNY   68  52  56 W22G28    29.92R
WEST BEND      PTSUNNY   64  45  48 W13G23    29.95R
JUNEAU         PTSUNNY   64  45  51 W10G22    29.98R
$$

LSZ147-162-241800-
LAKE SUPERIOR

STATION/POSITION TIME  TEMP    WIND        PRES    WAVE
                       AIR SEA DIR/SP/G            HT/PER
                 (UTC) (F)     (DEG/KT/KT) (MB)    (FT/S)
W MID LAKE BUOY  1550   45 39  260/ 10/ 12 1011.2R   1/ 4
DEVILS ISLAND    1600   53     250/ 14/ 18 1012.0R
SAXON HARBOR     1630   58     260/  6/ 11 1012.5R
$$

LMZ867-665-643>646-241800-
LAKE MICHIGAN

STATION/POSITION TIME  TEMP    WIND        PRES    WAVE
                       AIR SEA DIR/SP/G            HT/PER
                 (UTC) (F)     (DEG/KT/KT) (MB)    (FT/S)
CHAMBERS ISLAND  1640   68     340/  4/  5 1010.8R
S GREEN BAY BUOY 1630   63     250/ 12/ 16 1011.2R
N MID LAKE BUOY  1550   58 57  280/  6/  6 1011.1R   1
NORTHPORT PIER   1640   64     320/  6/  9 1010.8R
KEWAUNEE LAKESHO 1630   66     270/  8/ 14 1011.3R
SHEBOYGAN LAKESH 1600   65     270/ 14/ 18 1012.3R
PORT WASHINGTON  1640   70     300/ 14/ 21 1014.2R
ATWATER BUOY     1509   63 59  280/ 12/ 14 1013.3R
MILWAUKEE LAKESH 1630   67     290/ 13/ 16   N/A
S MID LAKE BUOY  1550   62 61  290/  8/ 10 1013.7R   2/ 4
KENOSHA   LAKESH 1600   67     290/ 11/ 18 1013.9
$$

TC  - TEMPERATURE IN CELSIUS
VSB - VISIBILITY IN STATUTE MILES
WCI - WIND CHILL INDEX
HX  - HEAT INDEX





USA.gov is the U.S. government's official web portal to all federal, state and local government web resources and services.